Providence, RI

11:21 PM EDT on May 25, 2018 (GMT -0400)
Green State

Weather History for KPVD - December, 2012

Change the Weather History Date:

Thursday, December 6, 2012

  Actual Average Record
Temperature  
Mean Temperature 33 °F 38 °F  
Max Temperature 41 °F 46 °F 72 °F (2001)
Min Temperature 25 °F 30 °F 10 °F (1935)
Degree Days  
Heating Degree Days 32 27  
Month to date heating degree days 136 159  
Since 1 July heating degree days 1161 1234  
Cooling Degree Days 0 0  
Month to date cooling degree days 0 0  
Year to date cooling degree days 834 744  
Moisture  
Dew Point 17 °F    
Average Humidity 55    
Maximum Humidity 75    
Minimum Humidity 34    
Precipitation  
Precipitation 0.00 in 0.15 in 2.16 in (1945)
Month to date precipitation 0.06 0.92  
Year to date precipitation 35.70 43.88  
Snow  
Snow 0.00 in 0.20 in 8.70 in (2003)
Month to date snowfall 0.3 1.2  
Since 1 July snowfall 1.6 2.7  
Snow Depth 0.00 in    
Sea Level Pressure  
Sea Level Pressure 30.28 in    
Wind  
Wind Speed 6 mph (NNW)    
Max Wind Speed 20 mph    
Max Gust Speed 26 mph    
Visibility 10 miles    
Events      
T = Trace of Precipitation, MM = Missing Value Source: NWS Daily Summary

Daily Weather History Graph

Daily Weather History Graph

Search for Another Location

Airport or City:

Astronomy

Dec. 06, 2012 Rise Set
Actual Time 6:58 AM EST 4:15 PM EST
Civil Twilight 6:27 AM EST 4:46 PM EST
Nautical Twilight 5:52 AM EST 5:21 PM EST
Astronomical Twilight 5:19 AM EST 5:54 PM EST
Moon No Moon Rise 11:45 AM EST (12/6)
Length of Visible Light 10h 18m
Length of Day
9h 16m
Waning Gibbous, 49% of the Moon is Illuminated
Dec 6
Waning Gibbous
Dec 13
New
Dec 20
First Quarter
Dec 28
Full
Jan 4
Last Quarter

Hourly Weather History & Observations

Time (EST) Temp. Windchill Dew Point Humidity Pressure Visibility Wind Dir Wind Speed Gust Speed Precip Events Conditions
12:51 AM 33.1 °F 24.4 °F 16.0 °F 50% 30.16 in 10.0 mi NW 11.5 mph 16.1 mph N/A   Partly Cloudy
1:51 AM 32.0 °F 24.2 °F 17.1 °F 54% 30.19 in 10.0 mi NNW 9.2 mph - N/A   Partly Cloudy
2:51 AM 30.9 °F 20.2 °F 14.0 °F 50% 30.19 in 10.0 mi NNW 15.0 mph 20.7 mph N/A   Partly Cloudy
3:51 AM 30.0 °F 22.4 °F 14.0 °F 51% 30.22 in 10.0 mi NW 8.1 mph - N/A   Clear
4:51 AM 30.0 °F 20.0 °F 14.0 °F 51% 30.23 in 10.0 mi NNW 12.7 mph - N/A   Clear
5:51 AM 28.9 °F 20.4 °F 14.0 °F 54% 30.27 in 10.0 mi NW 9.2 mph - N/A   Clear
6:51 AM 28.9 °F 21.1 °F 14.0 °F 54% 30.29 in 10.0 mi NW 8.1 mph 17.3 mph N/A   Partly Cloudy
7:51 AM 30.0 °F 22.4 °F 15.1 °F 54% 30.31 in 10.0 mi NNW 8.1 mph - N/A   Scattered Clouds
8:51 AM 32.0 °F 23.6 °F 17.1 °F 54% 30.32 in 10.0 mi NNW 10.4 mph - N/A   Scattered Clouds
9:51 AM 34.0 °F 25.0 °F 17.1 °F 50% 30.33 in 10.0 mi North 12.7 mph 19.6 mph N/A   Scattered Clouds
10:51 AM 36.0 °F 29.0 °F 17.1 °F 46% 30.32 in 10.0 mi NNW 9.2 mph - N/A   Partly Cloudy
11:51 AM 37.0 °F 32.4 °F 17.1 °F 44% 30.30 in 10.0 mi NNW 5.8 mph - N/A   Partly Cloudy
12:51 PM 39.0 °F 34.8 °F 16.0 °F 39% 30.28 in 10.0 mi Variable 5.8 mph - N/A   Scattered Clouds
1:51 PM 39.9 °F 36.7 °F 16.0 °F 38% 30.27 in 10.0 mi NNE 4.6 mph - N/A   Mostly Cloudy
2:51 PM 41.0 °F - 16.0 °F 36% 30.28 in 10.0 mi Calm Calm - N/A   Mostly Cloudy
3:51 PM 36.0 °F - 16.0 °F 44% 30.30 in 10.0 mi Calm Calm - N/A   Mostly Cloudy
4:51 PM 35.1 °F - 18.0 °F 50% 30.29 in 10.0 mi Calm Calm - N/A   Mostly Cloudy
5:51 PM 32.0 °F - 19.0 °F 59% 30.30 in 10.0 mi Calm Calm - N/A   Scattered Clouds
6:51 PM 30.9 °F - 19.9 °F 64% 30.31 in 10.0 mi Calm Calm - N/A   Partly Cloudy
7:51 PM 30.0 °F 26.5 °F 19.9 °F 66% 30.31 in 10.0 mi West 3.5 mph - N/A   Partly Cloudy
8:51 PM 28.9 °F - 19.0 °F 67% 30.31 in 10.0 mi Calm Calm - N/A   Scattered Clouds
9:51 PM 28.0 °F - 19.9 °F 72% 30.32 in 10.0 mi Calm Calm - N/A   Scattered Clouds
10:51 PM 26.1 °F - 19.0 °F 75% 30.32 in 10.0 mi Calm Calm - N/A   Scattered Clouds
11:51 PM 26.1 °F 21.9 °F 19.9 °F 78% 30.31 in 10.0 mi West 3.5 mph - N/A   Partly Cloudy